UAE41T OBBI-OMDB

Flight info

Callsign UAE41T
Flight time N/A
Altitude 25000
Route BHR N697 SODAK P559 VUTEB
Aircraft A35K/H-SDE2E3GHIJ3J4J5LM1ORWXY/LB1D1

Departure

Time 2026-04-27 12:16
Airport Bahrain International Airport (OBBI)

Arrival

Time N/A
Airport Dubai International Airport (OMDB)
Time Latitude Longitude Altitude Speed Heading
2026-04-27 11:45 26.26629 50.63382 26 ft 0 kts 213°
2026-04-27 11:59 26.26633 50.63385 28 ft 1 kts 212°
2026-04-27 11:59 26.26643 50.63393 27 ft 2 kts 217°
2026-04-27 12:00 26.26654 50.63405 25 ft 3 kts 221°
2026-04-27 12:00 26.26667 50.63409 27 ft 0 kts 298°
2026-04-27 12:07 26.26671 50.63402 27 ft 2 kts 298°
2026-04-27 12:07 26.26674 50.63395 27 ft 0 kts 298°
2026-04-27 12:08 26.26674 50.63394 27 ft 1 kts 299°
2026-04-27 12:08 26.26681 50.63387 27 ft 3 kts 311°
2026-04-27 12:08 26.26700 50.63373 27 ft 4 kts 333°
2026-04-27 12:08 26.26734 50.63361 27 ft 6 kts 352°
2026-04-27 12:09 26.26781 50.63368 27 ft 8 kts 17°
2026-04-27 12:09 26.26844 50.63374 31 ft 10 kts 347°
2026-04-27 12:09 26.26903 50.63319 30 ft 12 kts 303°
2026-04-27 12:09 26.26953 50.63231 28 ft 14 kts 303°
2026-04-27 12:10 26.27009 50.63134 29 ft 16 kts 303°
2026-04-27 12:10 26.27070 50.63028 28 ft 17 kts 302°
2026-04-27 12:10 26.27142 50.62919 27 ft 18 kts 308°
2026-04-27 12:10 26.27219 50.62789 30 ft 22 kts 301°
2026-04-27 12:11 26.27303 50.62641 27 ft 24 kts 303°
2026-04-27 12:11 26.27398 50.62477 23 ft 26 kts 302°
2026-04-27 12:11 26.27496 50.62306 22 ft 27 kts 302°
2026-04-27 12:11 26.27522 50.62260 22 ft 0 kts 303°
2026-04-27 12:12 26.27523 50.62260 22 ft 1 kts 303°
2026-04-27 12:12 26.27530 50.62246 22 ft 3 kts 303°
2026-04-27 12:12 26.27549 50.62216 22 ft 6 kts 303°
2026-04-27 12:12 26.27576 50.62169 22 ft 8 kts 303°
2026-04-27 12:13 26.27613 50.62107 22 ft 11 kts 303°
2026-04-27 12:13 26.27659 50.62028 22 ft 13 kts 302°
2026-04-27 12:13 26.27713 50.61936 22 ft 15 kts 303°
2026-04-27 12:13 26.27772 50.61834 25 ft 17 kts 303°
2026-04-27 12:14 26.27840 50.61720 25 ft 19 kts 305°
2026-04-27 12:14 26.27949 50.61660 27 ft 19 kts
2026-04-27 12:14 26.28006 50.61753 28 ft 15 kts 107°
2026-04-27 12:14 26.27972 50.61819 25 ft 0 kts 121°
2026-04-27 12:15 26.27971 50.61821 25 ft 0 kts 121°
2026-04-27 12:15 26.27926 50.61904 27 ft 50 kts 121°
2026-04-27 12:15 26.27560 50.62552 22 ft 145 kts 122°
2026-04-27 12:15 26.26889 50.63724 305 ft 202 kts 120°
2026-04-27 12:16 26.26119 50.65208 849 ft 241 kts 116°
2026-04-27 12:16 26.25522 50.67110 1422 ft 278 kts 99°
2026-04-27 12:16 26.25499 50.69306 1950 ft 290 kts 80°
2026-04-27 12:16 26.26134 50.71470 2332 ft 302 kts 61°
2026-04-27 12:17 26.27417 50.73406 2563 ft 319 kts 44°
2026-04-27 12:17 26.29230 50.74930 2591 ft 341 kts 29°
2026-04-27 12:17 26.31445 50.76137 2459 ft 362 kts 25°
2026-04-27 12:17 26.33619 50.77520 2974 ft 356 kts 32°
2026-04-27 12:18 26.35645 50.79047 3798 ft 348 kts 33°
2026-04-27 12:18 26.37585 50.80568 4565 ft 343 kts 33°
2026-04-27 12:18 26.39551 50.82089 5319 ft 338 kts 32°
2026-04-27 12:18 26.41493 50.83546 6121 ft 333 kts 31°
2026-04-27 12:19 26.43411 50.84944 6889 ft 327 kts 30°
2026-04-27 12:19 26.45297 50.86291 7710 ft 319 kts 29°